Location: Aulus
(42.7909°N, 1.3399°E)
Time: 20:24:42
(UTC+00:00)

Exosat Rocket - Pass Details

Date: 19 May 2025
Orbit: 761 x 2512 km, 72.3° (Epoch: 21 June)

Event Time Altitude Azimuth Distance (km) Brightness Sun altitude
Rises 23:11:11 0° 340° (NNW) 3,303 8.1 -26.6°
Reaches altitude 10° 23:13:37 10° 345° (NNW) 2,317 7.0 -26.6°
Maximum altitude 23:18:33 57° 65° (ENE) 907 3.8 -26.8°
Enters shadow 23:18:52 56° 81° (E) 921 3.8 -26.8°
